Weather History for Rayong, Thailand

Change the Weather History Date:

Friday, October 26, 2012

  Actual Average Record
Temperature  
Mean Temperature 86 °F -  
Max Temperature 93 °F 88 °F 95 °F (2006)
Min Temperature 78 °F 76 °F 69 °F (1996)
Cooling Degree Days 20    
Growing Degree Days 36 (Base 50)    
Moisture  
Dew Point 70 °F    
Average Humidity 63    
Maximum Humidity 78    
Minimum Humidity 43    
Precipitation  
Precipitation 0.00 in - - ()
Sea Level Pressure  
Sea Level Pressure 29.77 in    
Wind  
Wind Speed 2 mph ()    
Max Wind Speed 9 mph    
Max Gust Speed -    
Visibility 4.2 miles    
Events Rain , Thunderstorm    
Averages and records for this station are not official NWS values.
T = Trace of Precipitation, MM = Missing Value Source: Averaged Metar Reports

Daily Weather History Graph

Daily Weather History Graph

Search for Another Location

Airport:

Trip Planner

Search our weather history database for the weather conditions in past years. The results will help you decide how hot, cold, wet, or windy it might be!

Date:

Astronomy

Oct. 26, 2012 Rise Set
Actual Time 6:07 AM ICT 5:51 PM ICT
Civil Twilight 5:46 AM ICT 6:13 PM ICT
Nautical Twilight 5:21 AM ICT 6:38 PM ICT
Astronomical Twilight 4:56 AM ICT 7:03 PM ICT
Moon 3:25 PM ICT (10/26) 3:04 AM ICT (10/26)
Length of Visible Light 12h 27m
Length of Day
11h 43m
Waxing Gibbous, 88% of the Moon is Illuminated
Oct 26
Waxing Gibbous
Oct 30
Full
Nov 7
Last Quarter
Nov 14
New
Nov 20
First Quarter

Hourly Weather History & Observations

Time (ICT) Temp. Heat Index Dew Point Humidity Pressure Visibility Wind Dir Wind Speed Gust Speed Precip Events Conditions
12:00 AM 80.6 °F 84.6 °F 71.6 °F 74% 29.80 in 3.7 mi Calm Calm - N/A   Mostly Cloudy
12:30 AM 78.8 °F - 71.6 °F 78% 29.80 in 3.7 mi Calm Calm - N/A   Mostly Cloudy
1:00 AM 78.8 °F - 71.6 °F 78% 29.77 in 3.1 mi Calm Calm - N/A   Mostly Cloudy
1:30 AM 78.8 °F - 71.6 °F 78% 29.77 in 3.1 mi Calm Calm - N/A   Mostly Cloudy
2:00 AM 78.8 °F - 71.6 °F 78% 29.77 in 3.1 mi Calm Calm - N/A   Mostly Cloudy
3:30 AM 78.8 °F - 71.6 °F 78% 29.77 in 3.1 mi Calm Calm - N/A   Mostly Cloudy
4:00 AM 78.8 °F - 71.6 °F 78% 29.77 in 2.5 mi Calm Calm - N/A   Mostly Cloudy
5:00 AM 78.8 °F - 69.8 °F 74% 29.77 in 2.5 mi Calm Calm - N/A   Mostly Cloudy
6:00 AM 78.8 °F - 71.6 °F 78% 29.80 in 3.1 mi Calm Calm - N/A   Mostly Cloudy
6:30 AM 78.8 °F - 71.6 °F 78% 29.80 in 3.1 mi Calm Calm - N/A   Mostly Cloudy
7:00 AM 80.6 °F 84.6 °F 71.6 °F 74% 29.80 in 3.1 mi Calm Calm - N/A   Mostly Cloudy
7:30 AM 82.4 °F 87.2 °F 71.6 °F 70% 29.80 in 3.1 mi Calm Calm - N/A   Scattered Clouds
8:00 AM 84.2 °F 89.6 °F 71.6 °F 66% 29.80 in 3.1 mi Calm Calm - N/A   Scattered Clouds
8:30 AM 86.0 °F 91.8 °F 71.6 °F 62% 29.83 in 3.7 mi NE 4.6 mph - N/A   Scattered Clouds
9:00 AM 87.8 °F 93.8 °F 71.6 °F 58% 29.83 in 5.0 mi NNE 4.6 mph - N/A   Scattered Clouds
9:30 AM 89.6 °F 94.7 °F 69.8 °F 52% 29.83 in 5.0 mi NNE 3.5 mph - N/A   Scattered Clouds
10:00 AM 89.6 °F 93.4 °F 68.0 °F 49% 29.83 in 5.6 mi NNE 4.6 mph - N/A   Scattered Clouds
10:30 AM 91.4 °F 94.0 °F 66.2 °F 43% 29.83 in 5.6 mi NE 6.9 mph - N/A   Scattered Clouds
11:00 AM 91.4 °F 94.0 °F 66.2 °F 43% 29.80 in 5.6 mi NE 6.9 mph - N/A   Scattered Clouds
11:30 AM 91.4 °F 94.0 °F 66.2 °F 43% 29.80 in 5.6 mi NE 4.6 mph - N/A   Scattered Clouds
12:00 PM 91.4 °F 94.0 °F 66.2 °F 43% 29.77 in 5.6 mi NNE 3.5 mph - N/A   Scattered Clouds
12:30 PM 91.4 °F 94.0 °F 66.2 °F 43% 29.77 in 6.2 mi SSW 4.6 mph - N/A   Scattered Clouds
1:00 PM 89.6 °F 93.4 °F 68.0 °F 49% 29.74 in 6.2 mi WSW 4.6 mph - N/A   Mostly Cloudy
1:30 PM 89.6 °F 96.2 °F 71.6 °F 55% 29.74 in 6.2 mi West 4.6 mph - N/A   Mostly Cloudy
2:00 PM 91.4 °F 96.8 °F 69.8 °F 49% 29.71 in 6.2 mi West 6.9 mph - N/A   Mostly Cloudy
2:30 PM 93.2 °F 98.8 °F 69.8 °F 46% 29.71 in 5.6 mi West 4.6 mph - N/A   Mostly Cloudy
3:00 PM 91.4 °F 98.4 °F 71.6 °F 52% 29.71 in 5.6 mi NNW 6.9 mph - N/A   Mostly Cloudy
3:30 PM 91.4 °F 96.8 °F 69.8 °F 49% 29.71 in 4.3 mi NNW 9.2 mph - N/A   Mostly Cloudy
4:00 PM 91.4 °F 96.8 °F 69.8 °F 49% 29.71 in 4.3 mi NNW 4.6 mph - N/A   Mostly Cloudy
4:30 PM 89.6 °F 94.7 °F 69.8 °F 52% 29.71 in 4.3 mi NNW 4.6 mph - N/A   Mostly Cloudy
5:00 PM 89.6 °F 94.7 °F 69.8 °F 52% 29.71 in 4.3 mi NNW 4.6 mph - N/A Thunderstorm Thunderstorm
5:30 PM 87.8 °F 93.8 °F 71.6 °F 58% 29.71 in 4.3 mi WNW 4.6 mph - N/A Thunderstorm Thunderstorm
6:00 PM 87.8 °F 93.8 °F 71.6 °F 58% 29.74 in 3.7 mi SSE 4.6 mph - N/A Thunderstorm Thunderstorm
6:30 PM 78.8 °F - 69.8 °F 74% 29.74 in 3.1 mi SW 6.9 mph - N/A Rain , Thunderstorm Light Thunderstorms and Rain
7:00 PM 78.8 °F - 69.8 °F 74% 29.74 in 3.7 mi North 2.3 mph - N/A Thunderstorm Thunderstorm
7:30 PM 78.8 °F - 68.0 °F 69% 29.77 in 3.7 mi NNE 2.3 mph - N/A   Mostly Cloudy
8:00 PM 78.8 °F - 69.8 °F 74% 29.77 in 3.7 mi NNE 2.3 mph - N/A   Mostly Cloudy
8:30 PM 78.8 °F - 69.8 °F 74% 29.77 in 3.7 mi NE 2.3 mph - N/A   Mostly Cloudy
9:00 PM 78.8 °F - 69.8 °F 74% 29.80 in 3.7 mi ENE 2.3 mph - N/A   Mostly Cloudy
9:30 PM 78.8 °F - 69.8 °F 74% 29.80 in 3.7 mi NNE 2.3 mph - N/A   Mostly Cloudy
10:00 PM 78.8 °F - 69.8 °F 74% 29.80 in 3.7 mi North 2.3 mph - N/A   Mostly Cloudy
10:30 PM 78.8 °F - 69.8 °F 74% 29.80 in 3.7 mi NNE 2.3 mph - N/A   Mostly Cloudy
11:00 PM 78.8 °F - 68.0 °F 69% 29.80 in 3.7 mi ENE 2.3 mph - N/A   Mostly Cloudy
11:30 PM 78.8 °F - 69.8 °F 74% 29.80 in 3.7 mi NNW 2.3 mph - N/A   Mostly Cloudy